Wind_Speed
22 22 22 22 23 23 23 24 24 22 21 19 19 20 20 19 19 19 18 18 17 17 16 15 15 14 14 14 14 13 13 13 13 13 13 13 13 13 13 12 12 12 12 11
23 22 23 23 22 23 23 23 23 23 22 20 21 21 21 21 21 20 20 19 18 17 16 16 16 16 16 15 15 15 14 14 14 14 14 15 14 14 14 13 13 13 13 12
23 23 24 23 22 24 24 23 23 23 22 21 22 22 21 21 22 22 22 21 20 19 18 18 17 17 18 17 17 16 16 15 15 15 15 16 15 15 15 14 14 14 13 13
24 24 25 23 22 23 24 23 24 24 23 22 22 22 21 21 22 23 23 22 20 20 20 20 19 18 18 18 18 18 17 17 17 16 16 16 16 15 15 15 15 14 14 14
26 26 25 23 22 23 25 24 24 24 23 23 22 22 22 23 23 23 23 23 23 22 21 21 21 20 20 20 20 20 19 19 18 18 18 17 17 17 16 16 16 16 16 16
27 27 26 24 23 24 25 25 24 24 24 23 22 23 23 23 24 24 24 23 23 23 23 23 22 21 22 21 21 21 21 21 20 20 20 19 18 18 18 17 17 17 18 18
27 27 26 25 25 25 25 25 25 24 24 23 23 23 23 23 23 24 25 24 24 24 24 24 23 23 23 22 23 23 23 23 23 22 22 21 21 20 19 19 19 19 19 20
26 27 25 24 25 25 25 25 25 24 24 24 24 25 24 24 24 25 25 25 25 24 24 25 25 25 25 25 25 24 24 24 25 24 24 24 24 23 22 22 22 21 21 21
26 26 26 25 25 25 25 25 25 25 25 25 25 25 25 24 24 25 25 25 25 25 25 25 25 26 26 26 26 25 24 24 25 26 25 25 25 24 24 24 23 23 23 23
26 26 27 26 26 26 26 25 25 27 27 27 27 27 26 25 25 25 25 25 25 26 26 26 26 27 27 27 27 26 26 25 26 26 26 26 26 25 25 25 25 24 24 24
27 26 26 26 26 26 26 27 27 27 28 28 28 28 27 26 26 26 26 26 26 26 26 27 27 27 27 28 28 28 27 27 27 27 27 27 27 27 27 27 27 26 26 25
27 27 27 26 27 27 27 27 27 27 28 28 28 28 28 27 27 27 27 27 26 26 27 27 27 28 28 28 28 28 28 28 28 28 28 28 28 28 28 28 28 28 27 27
27 28 28 28 28 27 27 27 27 27 27 28 28 28 28 29 29 28 27 27 26 27 27 26 27 27 28 28 28 28 28 28 29 29 29 29 29 29 29 29 29 29 29 29
28 28 28 28 28 27 27 26 26 27 28 28 29 29 29 29 29 29 28 27 27 27 27 27 27 26 27 27 28 28 29 30 30 30 30 31 31 31 32 32 31 31 30 30
30 29 28 27 27 27 27 26 26 26 27 28 29 29 29 28 28 28 28 27 27 27 27 27 26 26 26 27 27 28 29 30 30 31 31 32 32 32 33 33 33 33 32 31
29 29 28 27 27 28 27 27 27 27 27 28 28 28 28 28 28 28 27 28 28 27 27 27 27 27 27 27 28 28 29 30 31 31 32 32 32 33 33 34 34 34 34 33
28 28 28 28 28 28 28 28 28 28 28 28 27 27 27 28 28 28 28 28 28 28 28 27 27 27 28 28 28 29 30 30 31 31 31 32 33 33 34 34 34 34 34 34
27 27 28 28 28 28 28 28 28 29 28 28 27 27 27 28 28 29 29 29 29 29 29 29 29 29 29 29 30 30 31 31 31 31 32 33 33 33 34 35 35 35 35 34
28 28 28 28 28 28 28 28 28 28 28 28 27 27 28 29 29 29 29 29 29 30 29 29 30 30 30 30 31 31 31 31 31 31 32 32 33 33 34 34 35 35 35 35
28 28 27 27 28 28 28 28 28 28 27 28 28 28 28 29 29 30 30 30 30 31 31 30 30 30 31 31 31 31 31 30 31 31 31 32 32 33 33 33 33 34 34 34
28 28 28 28 28 28 28 28 28 28 27 28 28 28 29 29 29 29 30 31 31 31 31 31 31 31 31 31 31 31 31 31 32 32 32 32 32 32 32 32 33 33 34 34
27 27 27 27 27 28 27 27 28 28 28 28 28 29 29 29 29 30 30 31 31 31 32 32 32 32 32 32 32 32 32 32 32 32 32 32 32 32 32 32 33 33 34 34
26 26 26 26 26 26 26 26 27 28 28 28 29 29 29 29 29 30 30 30 31 32 32 32 32 32 32 32 32 33 33 33 33 33 33 32 33 32 32 33 33 33 34 34
24 24 25 25 25 26 26 26 27 27 27 28 28 28 29 29 29 30 30 30 31 31 31 31 31 31 32 32 32 33 33 33 33 33 33 33 33 33 33 33 33 34 35 36
25 25 25 25 25 25 26 27 27 27 27 28 28 28 28 29 30 30 30 31 31 31 31 31 31 31 32 32 33 33 33 33 33 34 34 34 34 34 35 35 35 36 36 36
26 26 26 26 26 26 27 27 28 28 28 28 28 28 28 29 29 30 30 30 30 30 30 30 30 31 32 32 33 33 33 33 33 34 34 34 34 34 35 35 36 36 36 37
26 26 26 26 26 27 27 27 28 28 28 28 28 29 29 29 29 29 30 29 29 29 29 30 30 30 31 31 31 31 31 32 32 33 33 33 33 34 34 34 35 36 36 36
Wind_Direction
271 269 265 263 260 259 260 260 261 261 262 261 262 260 260 263 263 266 268 269 266 264 266 269 270 270 268 267 267 271 271 271 271 272 274 274 274 274 276 278 278 277 276 277
271 270 266 263 262 262 261 261 260 260 260 260 259 258 259 262 263 267 268 269 266 263 263 266 269 269 268 266 264 265 264 265 267 268 270 272 272 271 274 275 274 274 274 274
270 269 268 266 264 264 264 263 262 260 260 260 259 257 257 259 262 263 265 264 264 262 261 264 267 267 267 267 265 262 261 262 265 266 269 271 270 271 273 273 272 271 272 274
270 268 268 270 266 264 264 264 263 262 261 260 258 257 256 259 262 262 263 263 263 262 262 264 265 265 266 266 266 262 260 261 262 264 269 270 270 271 271 271 271 271 273 273
269 269 269 266 266 265 265 265 264 263 262 262 260 256 258 260 262 262 260 260 262 261 260 261 263 264 265 265 266 264 263 263 262 263 265 268 271 271 270 269 270 270 271 274
270 269 268 267 266 266 264 264 263 263 263 261 259 258 258 260 261 262 260 259 260 260 261 261 262 264 266 266 266 265 264 263 263 263 263 267 271 270 267 266 267 268 269 271
269 269 269 268 269 268 266 263 263 264 263 262 261 260 259 261 263 263 262 261 261 261 261 261 263 265 265 267 267 266 264 264 264 263 264 266 268 269 269 268 268 270 270 270
268 268 269 269 268 268 268 264 263 262 261 260 260 260 260 262 263 265 264 263 263 263 263 262 263 265 265 266 266 267 266 264 263 262 264 266 268 269 269 270 268 269 270 271
269 269 268 269 269 268 267 264 261 260 261 261 261 260 261 263 265 266 266 266 265 266 266 265 265 265 265 265 266 267 266 265 264 264 264 266 268 269 269 269 269 269 270 271
268 268 269 269 269 268 266 265 263 262 261 261 262 261 262 264 265 266 267 267 266 266 266 267 267 267 266 266 266 265 265 265 265 266 265 266 266 268 270 270 271 270 272 272
267 265 265 266 265 263 263 263 263 263 263 262 263 262 263 263 264 266 267 267 267 266 267 268 268 268 267 267 265 264 264 265 265 266 266 266 267 268 270 271 272 270 272 272
268 267 265 263 262 263 263 263 264 264 263 263 263 262 262 262 262 263 266 267 268 268 268 268 268 267 266 267 265 264 264 265 266 267 267 267 267 268 269 269 270 270 271 271
269 267 266 264 263 262 263 264 264 263 263 263 263 263 263 262 262 261 264 266 266 267 267 267 267 266 266 264 263 264 264 265 267 267 266 267 267 268 268 269 270 270 271 271
268 268 267 266 264 261 263 265 265 264 264 263 263 263 263 262 262 262 263 265 266 266 266 266 266 266 265 264 264 266 266 266 268 269 268 268 268 268 268 269 270 271 272 272
270 271 270 268 265 262 262 264 265 266 266 264 264 263 262 261 261 262 263 264 265 265 266 266 265 265 265 265 266 268 268 269 269 271 270 269 269 269 269 270 270 271 271 272
270 271 270 270 267 264 262 263 264 266 267 266 265 264 262 262 261 261 262 263 264 265 266 266 265 265 266 266 267 269 270 270 271 271 272 271 271 271 271 271 271 271 272 272
271 270 270 270 267 264 263 264 265 266 266 266 264 263 262 262 261 262 263 263 264 265 266 267 267 266 266 267 269 271 272 272 272 272 273 272 272 272 272 272 272 272 273 272
271 272 272 270 268 265 265 265 266 266 265 265 264 263 262 263 264 263 263 263 263 264 265 266 268 267 267 268 270 272 273 273 273 273 274 274 273 272 272 272 272 273 273 273
270 270 270 270 269 268 269 267 264 265 264 264 264 264 265 265 265 264 263 264 265 265 265 266 267 268 268 268 270 272 273 273 274 275 275 274 274 273 273 273 273 273 273 273
271 270 270 271 271 269 269 268 265 265 264 264 264 264 265 265 265 265 264 266 267 267 266 266 266 267 268 268 269 270 273 274 275 276 276 276 275 274 273 273 274 274 274 274
272 270 268 269 270 269 267 266 265 264 264 264 264 264 264 265 265 266 266 267 268 268 268 267 266 267 268 268 268 270 272 275 276 276 277 276 275 274 273 273 273 274 275 275
271 269 269 271 272 271 269 267 266 264 263 263 264 265 266 266 266 267 268 269 268 267 267 267 266 267 268 268 269 271 273 275 276 276 276 276 276 275 275 274 274 275 275 275
271 270 270 271 272 271 270 269 267 266 265 265 266 266 268 268 268 269 269 269 268 268 268 268 267 267 268 268 270 271 274 275 275 275 275 276 276 277 276 276 276 275 274 276
270 271 272 271 271 270 269 269 268 268 267 267 268 268 269 270 269 270 270 270 269 269 268 268 267 267 267 268 270 272 274 275 275 275 275 275 276 276 276 277 277 278 278 277
270 270 271 271 271 271 270 270 270 269 269 269 270 270 271 271 271 271 271 270 270 270 269 270 269 269 269 269 270 272 274 274 274 275 275 276 276 276 276 277 279 280 280 279
269 269 270 271 272 271 270 270 270 271 271 272 272 272 273 274 274 273 272 271 270 269 269 270 270 271 272 272 272 273 273 274 274 275 276 277 277 278 278 278 279 281 281 281
270 270 271 272 273 272 271 270 271 272 273 273 273 274 274 274 274 274 274 274 273 272 271 271 272 273 275 274 273 273 273 273 274 275 276 277 279 280 280 280 281 282 283 283
Height
5799 5799 5799 5800 5800 5801 5801 5802 5803 5805 5806 5807 5808 5808 5809 5809 5810 5811 5811 5811 5812 5812 5812 5812 5811 5811 5811 5811 5811 5811 5810 5810 5810 5810 5810 5809 5809 5809 5809 5809 5808 5808 5808 5807
5793 5792 5792 5793 5794 5795 5795 5796 5797 5798 5800 5801 5801 5802 5803 5804 5804 5805 5805 5806 5806 5807 5807 5807 5807 5807 5807 5807 5806 5806 5806 5806 5806 5806 5806 5805 5805 5805 5805 5805 5805 5804 5804 5804
5786 5786 5786 5787 5789 5789 5789 5790 5791 5792 5795 5795 5795 5795 5796 5797 5798 5799 5799 5800 5800 5801 5801 5801 5802 5802 5802 5802 5802 5801 5802 5802 5802 5802 5801 5801 5801 5801 5801 5801 5801 5800 5800 5800
5779 5781 5780 5784 5783 5783 5783 5784 5784 5785 5787 5788 5789 5789 5790 5791 5792 5793 5793 5794 5794 5795 5795 5796 5796 5796 5796 5796 5796 5796 5796 5797 5797 5797 5797 5797 5796 5796 5796 5796 5796 5796 5796 5795
5773 5773 5773 5776 5776 5776 5776 5777 5778 5779 5780 5781 5782 5783 5784 5785 5786 5786 5787 5787 5788 5788 5789 5790 5790 5790 5790 5790 5790 5790 5791 5791 5791 5791 5792 5792 5792 5792 5791 5791 5791 5791 5791 5791
5765 5765 5767 5770 5769 5769 5770 5771 5772 5772 5773 5774 5775 5777 5779 5779 5779 5779 5780 5780 5780 5781 5782 5783 5783 5783 5784 5784 5784 5784 5785 5785 5785 5786 5786 5786 5786 5786 5786 5786 5786 5786 5786 5786
5758 5758 5760 5762 5762 5762 5764 5765 5765 5765 5766 5767 5768 5770 5772 5772 5772 5772 5772 5773 5773 5774 5774 5775 5775 5776 5777 5777 5778 5778 5778 5778 5779 5779 5779 5780 5780 5780 5780 5780 5780 5780 5780 5780
5752 5752 5755 5755 5755 5756 5756 5756 5757 5758 5759 5760 5761 5762 5763 5764 5764 5765 5765 5765 5765 5766 5766 5767 5768 5769 5770 5770 5770 5770 5771 5771 5771 5772 5772 5773 5773 5773 5774 5774 5774 5774 5774 5773
5746 5747 5747 5746 5747 5747 5748 5749 5750 5750 5751 5752 5754 5755 5755 5756 5756 5757 5757 5757 5758 5758 5759 5759 5759 5760 5761 5762 5762 5762 5763 5763 5764 5764 5765 5765 5766 5766 5767 5767 5767 5767 5767 5767
5737 5738 5738 5738 5738 5739 5740 5741 5742 5742 5743 5744 5745 5746 5747 5748 5748 5748 5749 5749 5749 5750 5750 5751 5751 5751 5752 5753 5753 5754 5754 5755 5756 5756 5756 5757 5758 5758 5759 5759 5759 5760 5760 5759
5729 5730 5731 5731 5730 5731 5732 5733 5733 5734 5735 5735 5736 5738 5738 5739 5739 5739 5740 5740 5741 5741 5742 5742 5742 5743 5743 5744 5744 5745 5746 5747 5747 5748 5748 5749 5749 5750 5751 5751 5751 5751 5752 5752
5722 5723 5723 5723 5723 5723 5724 5724 5725 5726 5726 5727 5728 5728 5729 5730 5730 5731 5731 5732 5732 5732 5733 5733 5733 5734 5734 5735 5735 5736 5737 5738 5738 5739 5739 5740 5740 5741 5742 5742 5742 5742 5743 5743
5714 5714 5714 5715 5715 5715 5715 5716 5717 5717 5717 5718 5718 5719 5720 5720 5721 5722 5722 5723 5723 5724 5724 5724 5724 5725 5725 5726 5726 5728 5728 5729 5730 5730 5731 5731 5732 5732 5733 5733 5733 5733 5733 5733
5705 5705 5706 5706 5707 5707 5707 5708 5708 5708 5709 5709 5709 5710 5710 5711 5711 5712 5713 5714 5714 5715 5715 5715 5716 5716 5717 5717 5718 5719 5719 5720 5721 5721 5721 5722 5722 5722 5723 5723 5724 5724 5724 5723
5697 5696 5697 5698 5698 5699 5699 5699 5700 5700 5700 5700 5700 5700 5701 5702 5702 5703 5704 5705 5705 5706 5707 5707 5707 5708 5708 5709 5709 5710 5710 5711 5711 5711 5712 5712 5712 5712 5712 5713 5713 5714 5714 5713
5688 5688 5688 5689 5690 5690 5690 5691 5691 5692 5692 5692 5692 5692 5692 5693 5694 5695 5696 5696 5697 5697 5698 5699 5699 5699 5700 5700 5701 5701 5701 5701 5702 5702 5702 5702 5702 5702 5702 5702 5703 5703 5703 5703
5680 5680 5680 5681 5681 5681 5682 5682 5682 5683 5683 5683 5683 5684 5684 5685 5685 5686 5687 5688 5688 5689 5689 5690 5690 5691 5691 5691 5692 5692 5692 5692 5692 5692 5692 5692 5692 5692 5692 5692 5692 5692 5692 5692
5671 5671 5671 5671 5671 5672 5672 5673 5673 5673 5674 5674 5675 5675 5676 5676 5677 5677 5678 5678 5679 5680 5680 5681 5681 5681 5682 5682 5682 5683 5682 5682 5682 5682 5681 5681 5681 5681 5681 5681 5680 5680 5680 5680
5663 5663 5662 5662 5662 5662 5662 5663 5664 5664 5665 5665 5665 5666 5667 5668 5668 5668 5669 5669 5670 5671 5671 5671 5672 5672 5672 5673 5673 5673 5673 5672 5672 5671 5671 5670 5670 5670 5670 5669 5669 5669 5669 5669
5654 5653 5653 5653 5653 5654 5654 5654 5654 5655 5656 5656 5656 5657 5658 5658 5659 5659 5659 5660 5661 5661 5661 5661 5662 5662 5662 5663 5663 5663 5663 5663 5662 5661 5661 5660 5659 5659 5658 5658 5658 5658 5657 5657
5645 5645 5645 5645 5645 5645 5645 5645 5645 5646 5646 5647 5647 5648 5648 5649 5650 5650 5650 5651 5651 5651 5651 5651 5652 5652 5652 5653 5653 5653 5653 5652 5652 5651 5650 5650 5649 5648 5648 5647 5647 5647 5646 5646
5636 5635 5635 5635 5635 5636 5636 5636 5636 5636 5637 5638 5638 5638 5639 5640 5640 5640 5640 5640 5641 5640 5640 5641 5641 5642 5642 5642 5642 5642 5642 5642 5641 5641 5640 5639 5639 5638 5638 5637 5636 5636 5635 5635
5626 5626 5627 5627 5627 5627 5627 5627 5627 5628 5628 5629 5629 5629 5629 5630 5630 5630 5630 5630 5630 5630 5630 5630 5631 5631 5631 5631 5632 5632 5631 5631 5630 5630 5629 5629 5628 5627 5627 5626 5625 5625 5624 5624
5618 5618 5618 5618 5618 5618 5618 5619 5619 5619 5619 5619 5619 5619 5619 5619 5620 5620 5619 5619 5619 5619 5619 5620 5620 5620 5620 5620 5620 5620 5620 5620 5619 5619 5618 5618 5617 5616 5616 5615 5614 5614 5613 5612
5611 5610 5610 5610 5610 5610 5610 5610 5610 5610 5610 5610 5610 5610 5610 5609 5609 5610 5609 5609 5609 5609 5609 5608 5608 5608 5608 5608 5608 5608 5608 5608 5608 5608 5607 5607 5606 5605 5605 5604 5603 5602 5601 5601
5603 5603 5602 5602 5602 5602 5602 5602 5602 5602 5602 5602 5601 5601 5601 5600 5599 5599 5599 5598 5598 5598 5598 5598 5597 5597 5597 5596 5596 5596 5596 5596 5596 5596 5596 5595 5594 5594 5593 5592 5591 5590 5589 5588
5595 5595 5594 5594 5594 5593 5593 5593 5593 5593 5593 5593 5592 5592 5591 5591 5590 5589 5589 5588 5588 5588 5587 5587 5587 5586 5586 5585 5585 5585 5585 5585 5585 5585 5584 5584 5583 5582 5581 5580 5579 5578 5577 5576